Clarksburg, WV

2:06 PM EST on November 19, 2019 (GMT -0500)
Benedum

Weather History for KCKB - May, 2019

Change the Weather History Date:

Saturday, May 4, 2019

  Actual Average Record
Temperature  
Mean Temperature 66 °F 58 °F  
Max Temperature 72 °F 70 °F 89 °F (1942)
Min Temperature 60 °F 46 °F 29 °F (1939)
Degree Days  
Heating Degree Days 0 7  
Month to date heating degree days 0 31  
Since 1 July heating degree days 4306 5093  
Cooling Degree Days 1 0  
Month to date cooling degree days 23 0  
Year to date cooling degree days 48 9  
Growing Degree Days 16 (Base 50)    
Moisture  
Dew Point 61 °F    
Average Humidity 81    
Maximum Humidity 93    
Minimum Humidity 68    
Precipitation  
Precipitation 0.15 in 0.13 in 1.71 in (2009)
Month to date precipitation 0.30 0.45  
Year to date precipitation 14.43 14.63  
Sea Level Pressure  
Sea Level Pressure 29.87 in    
Wind  
Wind Speed 4 mph (North)    
Max Wind Speed 15 mph    
Max Gust Speed 19 mph    
Visibility 8 miles    
Events Rain    
T = Trace of Precipitation, MM = Missing Value Source: NWS Daily Summary

Daily Weather History Graph

Daily Weather History Graph

Search for Another Location

Airport or City:

Astronomy

May. 04, 2019 Rise Set
Actual Time 6:19 AM EDT 8:17 PM EDT
Civil Twilight 5:49 AM EDT 8:46 PM EDT
Nautical Twilight 5:14 AM EDT 9:22 PM EDT
Astronomical Twilight 4:35 AM EDT 10:00 PM EDT
Moon 6:28 AM EDT (5/4) 8:05 PM EDT (5/4)
Length of Visible Light 14h 56m
Length of Day
13h 57m
Waning Crescent, 0% of the Moon is Illuminated
May 4
Waning Crescent
May 4
New
May 11
First Quarter
May 18
Full
May 26
Last Quarter

Hourly Weather History & Observations

Time (EDT) Temp. Dew Point Humidity Pressure Visibility Wind Dir Wind Speed Gust Speed Precip Events Conditions
12:09 AM 66.0 °F 63.0 °F 90% 29.92 in 2.0 mi NNE 4.6 mph - N/A   Overcast
12:22 AM 66.0 °F 63.0 °F 90% 29.92 in 3.0 mi Calm Calm - 0.00 in Rain Light Rain
12:31 AM 66.0 °F 63.0 °F 90% 29.92 in 2.5 mi Calm Calm - 0.02 in Rain Light Rain
12:42 AM 66.0 °F 63.0 °F 90% 29.92 in 3.0 mi Calm Calm - 0.02 in Rain Light Rain
12:53 AM 66.0 °F 63.0 °F 90% 29.88 in 5.0 mi SSE 3.5 mph - 0.02 in   Overcast
1:53 AM 64.9 °F 62.1 °F 90% 29.86 in 6.0 mi Calm Calm - 0.01 in   Overcast
2:10 AM 64.9 °F 62.1 °F 90% 29.90 in 4.0 mi Calm Calm - N/A   Overcast
2:37 AM 64.9 °F 62.1 °F 90% 29.89 in 5.0 mi SSW 3.5 mph - N/A   Overcast
2:53 AM 64.9 °F 62.1 °F 90% 29.85 in 5.0 mi South 3.5 mph - N/A   Overcast
3:13 AM 64.0 °F 61.0 °F 90% 29.88 in 6.0 mi SSE 3.5 mph - N/A   Overcast
3:53 AM 64.0 °F 61.0 °F 90% 29.85 in 6.0 mi Calm Calm - N/A   Overcast
4:53 AM 64.0 °F 61.0 °F 90% 29.85 in 7.0 mi South 3.5 mph - N/A   Overcast
5:14 AM 64.0 °F 61.0 °F 90% 29.88 in 10.0 mi South 3.5 mph - N/A   Overcast
5:26 AM 64.9 °F 61.0 °F 87% 29.89 in 9.0 mi Calm Calm - N/A   Overcast
5:53 AM 64.9 °F 61.0 °F 87% 29.84 in 8.0 mi Calm Calm - 0.00 in Rain Light Rain
6:53 AM 64.9 °F 62.1 °F 90% 29.86 in 10.0 mi SW 4.6 mph - 0.00 in   Overcast
7:53 AM 64.9 °F 62.1 °F 90% 29.88 in 7.0 mi West 5.8 mph - N/A   Overcast
8:16 AM 66.0 °F 62.1 °F 87% 29.92 in 9.0 mi WNW 4.6 mph - N/A   Overcast
8:31 AM 66.0 °F 61.0 °F 84% 29.92 in 10.0 mi WNW 5.8 mph - N/A   Overcast
8:53 AM 64.9 °F 61.0 °F 87% 29.89 in 7.0 mi NNW 8.1 mph - N/A   Overcast
9:30 AM 64.9 °F 61.0 °F 87% 29.93 in 5.0 mi NNW 6.9 mph - N/A   Overcast
9:53 AM 64.9 °F 60.1 °F 84% 29.90 in 6.0 mi NNW 4.6 mph - N/A   Haze
10:53 AM 66.9 °F 61.0 °F 81% 29.90 in 8.0 mi Calm Calm - N/A   Overcast
11:15 AM 66.9 °F 61.0 °F 81% 29.92 in 9.0 mi East 4.6 mph - N/A   Overcast
11:53 AM 68.0 °F 60.1 °F 76% 29.88 in 10.0 mi Calm Calm - N/A   Mostly Cloudy
12:11 PM 66.9 °F 61.0 °F 81% 29.91 in 9.0 mi East 4.6 mph - N/A   Mostly Cloudy
12:19 PM 68.0 °F 61.0 °F 78% 29.91 in 9.0 mi ESE 3.5 mph - N/A   Mostly Cloudy
12:35 PM 68.0 °F 60.1 °F 76% 29.90 in 9.0 mi Calm Calm - N/A   Mostly Cloudy
12:53 PM 68.0 °F 60.1 °F 76% 29.86 in 10.0 mi Calm Calm - N/A   Mostly Cloudy
1:41 PM 69.1 °F 60.1 °F 73% 29.89 in 10.0 mi Calm Calm - N/A   Mostly Cloudy
1:53 PM 70.0 °F 60.1 °F 71% 29.85 in 10.0 mi Calm Calm - N/A   Mostly Cloudy
2:13 PM 70.0 °F 60.1 °F 71% 29.89 in 10.0 mi West 3.5 mph - N/A   Overcast
2:21 PM 69.1 °F 59.0 °F 70% 29.88 in 10.0 mi Calm Calm - N/A   Overcast
2:53 PM 70.0 °F 60.1 °F 71% 29.84 in 10.0 mi Calm Calm - N/A   Overcast
3:53 PM 72.0 °F 60.1 °F 66% 29.82 in 10.0 mi NW 3.5 mph - N/A   Mostly Cloudy
4:12 PM 70.0 °F 59.0 °F 68% 29.85 in 10.0 mi Calm Calm - N/A   Mostly Cloudy
4:53 PM 69.1 °F 60.1 °F 73% 29.81 in 10.0 mi NNE 5.8 mph - N/A   Overcast
5:37 PM 69.1 °F 61.0 °F 75% 29.83 in 10.0 mi East 3.5 mph - 0.00 in   Mostly Cloudy
5:53 PM 69.1 °F 62.1 °F 78% 29.80 in 9.0 mi Calm Calm - 0.00 in   Mostly Cloudy
6:53 PM 68.0 °F 60.1 °F 76% 29.78 in 10.0 mi North 4.6 mph - N/A   Overcast
7:53 PM 64.0 °F 59.0 °F 84% 29.80 in 5.0 mi NNE 10.4 mph - 0.01 in Rain Light Rain
8:53 PM 62.1 °F 57.9 °F 86% 29.81 in 7.0 mi NNE 8.1 mph - 0.06 in Rain Light Rain
9:53 PM 62.1 °F 57.9 °F 86% 29.81 in 8.0 mi NNE 6.9 mph - 0.04 in Rain Light Rain
10:13 PM 61.0 °F 57.9 °F 90% 29.83 in 9.0 mi NNE 5.8 mph - 0.00 in Rain Light Rain
10:20 PM 61.0 °F 57.9 °F 90% 29.83 in 8.0 mi NNE 6.9 mph - 0.00 in Rain Light Rain
10:53 PM 61.0 °F 57.9 °F 90% 29.79 in 7.0 mi NNE 5.8 mph - 0.01 in Rain Light Rain
11:41 PM 61.0 °F 57.0 °F 87% 29.81 in 6.0 mi North 4.6 mph - 0.00 in Rain Light Rain
11:53 PM 61.0 °F 57.0 °F 87% 29.78 in 6.0 mi NNE 5.8 mph - 0.01 in Rain Light Rain